Lid_Strength_Index
1 0 -0 -1 -1 -1 -1 -1 -1 -1 -1 -1 -2 -1 -2 -1 -1 -1 -0 -0 1 3 3 2 1 1 4
1 2 1 0 -0 -0 -0 0 1 1 0 -0 -0 -1 -2 -2 -1 -1 -0 0 1 4 4 3 3 3 6
-0 1 2 2 1 1 1 1 2 1 1 2 2 -0 -2 -2 -2 -1 -1 0 2 4 5 4 6 8 8
0 1 1 0 0 -0 -0 -0 1 2 1 2 3 1 -0 -1 -2 -1 -1 0 5 10 11 8 11 10 9
1 1 1 1 1 0 0 0 1 2 3 2 3 2 3 3 3 1 2 5 9 11 11 11 12 12 10
2 1 1 1 1 1 1 2 2 2 3 3 3 3 3 4 5 6 5 6 8 10 11 11 12 12 11
2 3 2 1 0 2 2 2 3 4 2 2 3 3 3 4 5 7 7 7 9 11 11 12 12 12 12
2 3 3 1 1 1 1 2 3 4 3 2 3 4 4 4 5 7 7 7 10 11 11 12 12 12 12
2 3 3 3 3 3 3 3 3 2 2 2 3 4 4 5 6 7 8 10 10 11 12 12 12 12 12
3 3 3 4 4 4 2 2 2 2 2 3 4 4 4 5 6 7 8 10 11 12 13 13 13 12 12
5 5 5 5 3 3 2 2 2 2 3 3 4 4 5 6 6 7 9 9 11 12 12 13 13 13 12
7 7 7 7 5 5 5 4 3 3 3 3 4 4 5 6 7 8 9 11 11 12 12 13 14 13 13
10 9 9 10 8 9 9 9 7 5 4 4 5 5 6 6 7 8 10 10 11 12 14 14 14 13 13
12 11 11 11 11 12 12 12 12 11 10 7 7 7 7 8 8 9 10 11 11 12 13 14 15 14 14
12 12 12 12 12 13 13 13 13 13 12 12 11 10 9 9 9 9 10 11 11 12 13 12 14 16 16
13 13 13 14 14 14 14 13 14 13 14 13 13 13 12 11 10 10 10 11 12 12 12 12 13 14 15